Flag for Canada Weather past 2 weeks in Sherbrooke, Quebec, Canada

Now
46 °F

More clouds than sun.


Feels Like: 42 °F
Forecast: N/A
Wind: 8 mph from Northwest

Location: Sherbrooke

Current Time: Apr 26, 2015 at 5:00:26 PM

Latest Report: Apr 26, 2015 at 4:00 PM


Visibility: 9 mi

Pressure: 29.67 "Hg

Humidity: 71%

Dew point: 37 °F

Location of SherbrookeLocation

Historic Weather in Sherbrooke — Graph

°F

Sherbrooke temperature yesterday

Maximum temperature yesterday: 39 °F (at 4:00 PM)
Minimum temperature yesterday: 28 °F (at 1:02 AM)
Average temperature yesterday: 33 °F

Past Weeks' High & Low Weather Summary

 TemperatureHumidityPressure
High68 °F (Apr 13, 2:00 PM)100% (Apr 14, 4:00 AM)30.49 "Hg (Apr 14, 4:00 AM)
Low21 °F (Apr 16, 4:00 AM)20% (Apr 16, 1:00 PM)29.47 "Hg (Apr 23, 4:00 AM)
Average41 °F71%29.92 "Hg
* Reported Apr 11 4:00 PM — Apr 26 4:00 PM, Sherbrooke, Weather by CustomWeather, © 2015

Note: Actual official high and low records may vary slightly from our data, if they occured in-between our weather recording intervals... More about our weather records

Advertising

Sherbrooke weather history for previous 24 hours

 ConditionsComfort  
Time TempWeatherWind HumidityBarometerVisibility
4:00 PM
Sun, Apr 26
46 °FMore clouds than sun.8 mph71%29.67 "Hg9 mi
3:02 PM45 °FLight rain. Mostly cloudy.10 mph81%29.68 "Hg9 mi
2:00 PM43 °FLight rain. Cloudy.10 mph87%29.69 "Hg9 mi
1:59 PM43 °FLight rain. Overcast.10 mph87%29.70 "Hg9 mi
1:00 PM45 °FLight rain. Mostly cloudy.12 mph76%29.70 "Hg9 mi
12:57 PM45 °FLight rain. Cloudy.14 mph76%29.70 "Hg9 mi
12:00 PM45 °FMostly cloudy.10 mph76%29.70 "Hg9 mi
11:00 AM41 °FOvercast.8 mph81%29.70 "Hg9 mi
10:00 AM39 °FOvercast.6 mph81%29.72 "Hg9 mi
9:47 AM39 °FOvercast.8 mph81%29.71 "Hg9 mi
9:00 AM37 °FLow clouds.10 mph93%29.70 "Hg9 mi
8:00 AM37 °FLow clouds.7 mph100%29.70 "Hg9 mi
7:00 AM37 °FLow clouds.5 mphN/A29.69 "Hg9 mi
6:00 AM37 °FLow clouds.3 mphN/A29.69 "Hg9 mi
5:00 AM37 °FLow clouds.3 mphN/A29.69 "Hg9 mi
4:00 AM37 °FLow clouds.2 mphN/A29.70 "Hg9 mi
3:00 AM36 °FMostly cloudy.7 mph100%29.70 "Hg9 mi
2:00 AM36 °FMostly cloudy.3 mph100%29.71 "Hg9 mi
1:02 AM34 °FMostly cloudy.No windN/A29.72 "Hg5 mi
12:00 AM34 °FMostly cloudy.No windN/A29.72 "Hg9 mi
11:00 PM
Sat, Apr 25
34 °FOvercast.2 mphN/A29.73 "Hg9 mi
10:00 PM36 °FOvercast.2 mph100%29.74 "Hg9 mi
9:00 PM37 °FMostly cloudy.5 mph93%29.74 "Hg9 mi
8:00 PM37 °FMore clouds than sun.5 mph87%29.74 "Hg9 mi
7:00 PM39 °FOvercast.3 mph81%29.73 "Hg9 mi
6:00 PM39 °FLight rain. Overcast.2 mph81%29.74 "Hg9 mi
5:00 PM39 °FMostly cloudy.3 mph81%29.74 "Hg9 mi
Weather by CustomWeather, © 2015

See weather overviewHow to use our weather pages